Peyton, CO

2:58 AM MST on February 21, 2017 (GMT -0700)
Meadow Lake

Weather History for KFLY - November, 2013

Change the Weather History Date:

Monday, November 18, 2013

  Actual Average (KCOS) Record (KCOS)
Temperature  
Mean Temperature 38 °F -  
Max Temperature 57 °F 48 °F 76 °F (2008)
Min Temperature 19 °F 23 °F -5 °F (1903)
Degree Days  
Heating Degree Days 27    
Moisture  
Dew Point 9 °F    
Average Humidity 38    
Maximum Humidity 64    
Minimum Humidity 13    
Precipitation  
Precipitation 0.00 in - - ()
Sea Level Pressure  
Sea Level Pressure 30.14 in    
Wind  
Wind Speed 6 mph (West)    
Max Wind Speed 10 mph    
Max Gust Speed 16 mph    
Visibility 10 miles    
Events      
Averages and records for this station are not official NWS values.
T = Trace of Precipitation, MM = Missing Value Source: NWS Daily Summary

Daily Weather History Graph

Daily Weather History Graph

Search for Another Location

Airport or City:

Trip Planner

Search our weather history database for the weather conditions in past years. The results will help you decide how hot, cold, wet, or windy it might be!

Date:

Astronomy

Nov. 18, 2013 Rise Set
Actual Time 6:44 AM MST 4:42 PM MST
Civil Twilight 6:15 AM MST 5:10 PM MST
Nautical Twilight 5:43 AM MST 5:43 PM MST
Astronomical Twilight 5:11 AM MST 6:14 PM MST
Moon 5:46 PM MST (11/18) 7:35 AM MST (11/18)
Length of Visible Light 10h 54m
Length of Day
9h 57m
Full, 99% of the Moon is Illuminated
Nov 18
Full
Nov 25
Last Quarter
Dec 2
New
Dec 9
First Quarter
Dec 17
Full

Hourly Weather History & Observations

Time (MST) Temp. Windchill Dew Point Humidity Pressure Visibility Wind Dir Wind Speed Gust Speed Precip Events Conditions
12:13 AM 25.3 °F 16.7 °F 12.9 °F 59% 30.16 in 10.0 mi WSW 8.1 mph - N/A   Clear
12:33 AM 25.3 °F 17.6 °F 10.8 °F 54% 30.15 in 10.0 mi SW 6.9 mph - N/A   Clear
12:53 AM 24.6 °F 18.8 °F 10.4 °F 55% 30.16 in 10.0 mi West 4.6 mph - N/A   Clear
1:13 AM 25.5 °F - 10.0 °F 52% 30.16 in 10.0 mi North - - N/A   Clear
1:33 AM 25.2 °F - 9.5 °F 52% 30.16 in 10.0 mi North - - N/A   Clear
1:53 AM 24.6 °F - 9.7 °F 53% 30.14 in 10.0 mi North - - N/A   Clear
2:13 AM 24.4 °F 16.5 °F 9.7 °F 53% 30.14 in 10.0 mi West 6.9 mph - N/A   Clear
2:33 AM 24.3 °F 16.3 °F 10.4 °F 56% 30.14 in 10.0 mi West 6.9 mph - N/A   Clear
2:53 AM 24.3 °F 16.3 °F 9.5 °F 53% 30.14 in 10.0 mi West 6.9 mph - N/A   Clear
3:13 AM 23.7 °F 16.6 °F 9.7 °F 55% 30.14 in 10.0 mi WSW 5.8 mph - N/A   Clear
3:33 AM 22.1 °F 13.7 °F 10.2 °F 60% 30.13 in 10.0 mi West 6.9 mph - N/A   Clear
3:53 AM 22.6 °F 18.0 °F 9.7 °F 58% 30.13 in 10.0 mi West 3.5 mph - N/A   Clear
4:13 AM 19.8 °F 13.2 °F 9.3 °F 64% 30.13 in 10.0 mi WNW 4.6 mph - N/A   Clear
4:33 AM 20.7 °F 15.8 °F 9.9 °F 63% 30.13 in 10.0 mi West 3.5 mph - N/A   Clear
4:53 AM 21.7 °F 17.0 °F 9.7 °F 60% 30.13 in 10.0 mi West 3.5 mph - N/A   Clear
5:13 AM 19.8 °F 13.2 °F 9.3 °F 64% 30.13 in 10.0 mi WNW 4.6 mph - N/A   Clear
5:33 AM 22.5 °F 16.3 °F 9.1 °F 57% 30.13 in 10.0 mi North 4.6 mph - N/A   Clear
5:53 AM 22.8 °F 16.7 °F 10.4 °F 59% 30.13 in 10.0 mi North 4.6 mph - N/A   Clear
6:13 AM 21.7 °F 12.3 °F 9.5 °F 59% 30.14 in 10.0 mi SE 8.1 mph - N/A   Clear
6:33 AM 22.3 °F - 8.2 °F 55% 30.15 in 10.0 mi North - - N/A   Clear
6:53 AM 21.4 °F - 9.0 °F 59% 30.16 in 10.0 mi North - - N/A   Clear
7:13 AM 21.9 °F - 9.5 °F 59% 30.16 in 10.0 mi North - - N/A   Clear
7:33 AM 27.3 °F 23.4 °F 10.9 °F 50% 30.17 in 10.0 mi West 3.5 mph - N/A   Clear
7:53 AM 31.3 °F 26.6 °F 11.1 °F 43% 30.17 in 10.0 mi NNW 4.6 mph - N/A   Clear
8:13 AM 36.0 °F - 11.8 °F 37% 30.18 in 10.0 mi Calm Calm - N/A   Clear
8:33 AM 45.1 °F 43.7 °F 10.4 °F 24% 30.18 in 10.0 mi North 3.5 mph - N/A   Clear
8:53 AM 49.6 °F - 8.2 °F 19% 30.18 in 10.0 mi ENE 3.5 mph - N/A   Clear
9:13 AM 50.5 °F - 8.2 °F 18% 30.19 in 10.0 mi East 5.8 mph - N/A   Clear
9:33 AM 52.2 °F - 5.0 °F 15% 30.20 in 10.0 mi East 5.8 mph - N/A   Clear
9:53 AM 52.3 °F - 5.7 °F 15% 30.20 in 10.0 mi East 6.9 mph - N/A   Clear
10:13 AM 52.3 °F - 6.6 °F 16% 30.20 in 10.0 mi SSE 4.6 mph - N/A   Clear
10:33 AM 53.4 °F - 5.0 °F 14% 30.20 in 10.0 mi WSW 4.6 mph - N/A   Clear
10:53 AM 53.8 °F - 5.0 °F 14% 30.20 in 10.0 mi NNW 4.6 mph - N/A   Clear
11:13 AM 55.6 °F - 5.7 °F 13% 30.19 in 10.0 mi North 4.6 mph - N/A   Clear
11:33 AM 56.3 °F - 5.0 °F 13% 30.18 in 10.0 mi SE 4.6 mph - N/A   Clear
11:53 AM 57.4 °F - 5.5 °F 13% 30.17 in 10.0 mi South 8.1 mph - N/A   Clear
12:13 PM 57.6 °F - 7.5 °F 14% 30.16 in 10.0 mi South 6.9 mph - N/A   Clear
12:33 PM 56.7 °F - 7.7 °F 14% 30.15 in 10.0 mi South 5.8 mph - N/A   Clear
12:53 PM 55.8 °F - 7.3 °F 14% 30.15 in 10.0 mi SSW 9.2 mph 16.1 mph N/A   Clear
1:13 PM 54.5 °F - 7.3 °F 15% 30.15 in 10.0 mi SW 5.8 mph - N/A   Clear
1:33 PM 54.5 °F - 5.5 °F 14% 30.15 in 10.0 mi SW 3.5 mph - N/A   Clear
1:53 PM 54.7 °F - 5.5 °F 14% 30.14 in 10.0 mi SW 5.8 mph - N/A   Clear
2:13 PM 55.4 °F - 5.4 °F 13% 30.13 in 10.0 mi SSE 5.8 mph - N/A   Clear
2:33 PM 55.4 °F - 5.4 °F 13% 30.12 in 10.0 mi South 5.8 mph - N/A   Clear
2:53 PM 54.9 °F - 5.5 °F 14% 30.12 in 10.0 mi South 6.9 mph - N/A   Clear
3:13 PM 54.1 °F - 5.2 °F 14% 30.12 in 10.0 mi South 6.9 mph - N/A   Clear
3:33 PM 52.9 °F - 5.0 °F 14% 30.12 in 10.0 mi South 9.2 mph - N/A   Clear
3:53 PM 51.1 °F - 4.8 °F 15% 30.12 in 10.0 mi South 8.1 mph - N/A   Clear
4:13 PM 47.5 °F - 6.1 °F 18% 30.12 in 10.0 mi South 4.6 mph - N/A   Clear
4:33 PM 43.3 °F 39.2 °F 5.9 °F 21% 30.12 in 10.0 mi SW 6.9 mph - N/A   Clear
4:53 PM 40.3 °F 35.5 °F 6.8 °F 25% 30.12 in 10.0 mi SW 6.9 mph - N/A   Clear
5:13 PM 41.0 °F - 6.3 °F 24% 30.12 in 10.0 mi Calm Calm - N/A   Clear
5:33 PM 38.3 °F 31.9 °F 6.3 °F 26% 30.13 in 10.0 mi NW 9.2 mph - N/A   Clear
5:53 PM 34.0 °F 27.2 °F 7.2 °F 33% 30.13 in 10.0 mi NW 8.1 mph - N/A   Clear
6:13 PM 32.9 °F 28.5 °F 7.5 °F 35% 30.12 in 10.0 mi WNW 4.6 mph - N/A   Clear
6:33 PM 31.8 °F 25.4 °F 8.6 °F 38% 30.13 in 10.0 mi NW 6.9 mph - N/A   Clear
6:53 PM 31.5 °F - 9.5 °F 40% 30.12 in 10.0 mi Calm Calm - N/A   Clear
7:13 PM 30.6 °F 23.8 °F 10.9 °F 44% 30.12 in 10.0 mi NNW 6.9 mph - N/A   Clear
7:33 PM 28.9 °F 21.9 °F 11.5 °F 48% 30.12 in 10.0 mi NW 6.9 mph - N/A   Clear
7:53 PM 31.3 °F 27.9 °F 11.1 °F 43% 30.13 in 10.0 mi ESE 3.5 mph - N/A   Clear
8:13 PM 28.4 °F - 10.9 °F 48% 30.12 in 10.0 mi Calm Calm - N/A   Clear
8:33 PM 30.2 °F - 10.0 °F 43% 30.13 in 10.0 mi Calm Calm - N/A   Clear
8:53 PM 28.2 °F - 11.7 °F 50% 30.12 in 10.0 mi Calm Calm - N/A   Clear
9:13 PM 28.2 °F 19.5 °F 12.4 °F 52% 30.12 in 10.0 mi NW 9.2 mph - N/A   Clear
9:33 PM 28.0 °F 20.0 °F 12.2 °F 52% 30.11 in 10.0 mi WNW 8.1 mph - N/A   Clear
9:53 PM 29.5 °F 20.4 °F 11.5 °F 47% 30.11 in 10.0 mi NW 10.4 mph - N/A   Clear
10:13 PM 27.5 °F 22.2 °F 11.8 °F 52% 30.11 in 10.0 mi WNW 4.6 mph - N/A   Clear
10:33 PM 28.0 °F 21.7 °F 12.2 °F 52% 30.10 in 10.0 mi West 5.8 mph - N/A   Clear
10:53 PM 29.8 °F 24.9 °F 12.7 °F 49% 30.10 in 10.0 mi WNW 4.6 mph - N/A   Clear
11:13 PM 29.8 °F 23.9 °F 13.1 °F 50% 30.09 in 10.0 mi NW 5.8 mph - N/A   Clear
11:33 PM 29.1 °F 20.0 °F 14.2 °F 54% 30.09 in 10.0 mi NW 10.4 mph - N/A   Clear
11:53 PM 28.8 °F 19.5 °F 15.3 °F 57% 30.08 in 10.0 mi NW 10.4 mph - N/A   Clear